Preview of NWS' New Version of Forecast
This preview is not operational and should not be used for support decisions.

Regional Weather Roundup (RWR)

Issued by National Weather Service (NWS)

                            
000
ASUS42 KTBW 212018
RWRFL 
FLORIDA REGIONAL WEATHER ROUNDUP
NATIONAL WEATHER SERVICE TAMPA BAY RUSKIN FL
400 PM EDT SUN JUL 21 2019

NOTE: "FAIR" INDICATES FEW OR NO CLOUDS BELOW 12,000 FEET WITH NO
SIGNIFICANT WEATHER AND/OR OBSTRUCTIONS TO VISIBILITY.

FLZ001>010-012>015-112-114-115-212100-
PANHANDLE FLORIDA
  
CITY           SKY/WX    TMP DP  RH WIND       PRES   REMARKS
PENSACOLA      FAIR      86  72  62 SW7       30.03F                  
PENSACOLA NAS  PTSUNNY   83  75  77 SW8       30.03F                  
MILTON NAS     LGT RAIN  84  75  74 S8G21       N/A                   
CRESTVIEW      FAIR      84  72  67 W7        30.05F                  
DUKE FIELD     FAIR      82  74  75 W8        30.03F                  
VALPARAISO     LGT RAIN  86  73  66 SW6       30.02F                  
MARY ESTHER    MOSUNNY   86  73  65 CALM      30.02F                  
TRI COUNTY     FAIR      92  73  53 S8        30.03S HX 100           
PANAMA CITY    FAIR      88  71  57 S13       30.03F                  
TYNDALL AFB    FAIR      87  75  68 SW8       30.03F HX  96           

STATION/POSITION SKY/WX   TEMP    WIND        PRES    WAVE   SWELL
                          AIR SEA DIR/SP/G            HT/PER HT/PER
                          (F)     (DEG/KT/KT) (MB)    (FT/S) (FT/S)
30.1N   87.6W              79 86  220/  6/  8 1016.9F   1/ 4
29.2N   88.2W              80     220/  6/  8 1017.2
28.8N   86.0W                 86  270/  4/  4 1017.4F   1/ 4
PANAMA CITY BEAC           83 86  230/  9/ 10 1018.0F
TOWER C                    78     140/ 12/ 13 1017.8F
28.5N   84.5W              80     120/ 10/ 12 1018.0F   2/ 4   2/ 8

$$
FLZ011-016>038-118-127-128-134-139-239-212100-
NORTH FLORIDA
  
CITY           SKY/WX    TMP DP  RH WIND       PRES   REMARKS
MARIANNA       PTSUNNY   89  71  55 CALM      30.01F HX  95           
TALLAHASSEE    PTSUNNY   91  72  53 CALM      30.02F HX  98           
PERRY          PTSUNNY   90  73  57 S7        30.05S HX  98           
LIVE OAK       MOSUNNY   91  70  49 CALM      30.03F HX  97           
CROSS CITY     FAIR      74  71  92 NE3       30.07S THUNDER FOG      
LAKE CITY      FAIR      90  70  51 CALM      30.04S HX  95           
GAINESVILLE    PTSUNNY   87  72  60 E13G21    30.05F THUNDER          
WILLISTON      PTSUNNY   80  73  76 NW13G24   30.05R                  
PALATKA        CLOUDY    86  73  66 CALM      30.04R                  
MAYPORT NAS    FAIR      88  76  67 SE12      30.04F HX  99           
JACKSONVILLE   FAIR      89  74  60 E9        30.02F HX  98           
JAX NAS        PTSUNNY   93  71  48 VRB6      30.03F THUNDER HX 100   
JAX CECIL      PTSUNNY   95  72  46 NE7       30.02F HX 103           
FERNANDINA BEA FAIR      88  77  70 SE12      30.04F HX 100           
ST AUGUSTINE   FAIR      87  75  67 SE14      30.05F HX  96           
PALM COAST     SUNNY     84  75  74 SE8       30.05S                  

STATION/POSITION SKY/WX   TEMP    WIND        PRES    WAVE   SWELL
                          AIR SEA DIR/SP/G            HT/PER HT/PER
                          (F)     (DEG/KT/KT) (MB)    (FT/S) (FT/S)
SHELL POINT      NOT AVBL
KEATON BEACH               85     230/  6/  6 1017.7F
CEDAR KEY                  81      30/  8/ 11 1017.4F
FERNANDINA                 92 85  120/  7/ 11 1018.0F
30.7N   81.3W                 85                N/A     2/ 8
MAYPORT                    86 83  110/  9/ 12 1017.9F
31.4N   80.9W              83 85  170/ 10/ 12 1017.2F   2/ 9   2/ 9
ST AUGUSTINE               82 80  140/ 10/ 10 1017.7F

$$
FLZ040-043>046-052-053-057-058-063-144-212100-
INTERIOR CENTRAL FLORIDA
  
CITY           SKY/WX    TMP DP  RH WIND       PRES   REMARKS
OCALA          FAIR      93  73  52 S7        30.03F HX 102           
LEESBURG       TSTM      82  71  69 SE31G52   30.10R SQUALL           
SANFORD        FAIR      81  73  76 W3        30.07R                  
ORLANDO EXEC   TSTM      77  69  76 CALM      30.06R                  
ORLANDO INTL   PTSUNNY   80  71  74 S5        30.04S THUNDER          
KISSIMMEE      CLOUDY    79  69  71 SW9       30.06R                  
WINTER HAVEN   FAIR      76  69  79 SW5       30.06F                  
LAKELAND       TSTM      73  72  94 SE22G35   30.07R VSB 1            
BARTOW         TSTM      73  72  94 VRB8      30.05R                  
SEBRING        FAIR      80  69  70 SE10      30.06R                  
OKEECHOBEE     FAIR      86  73  66 CALM      30.03F                  

$$
FLZ041-047-054-059-064-141-147-212100-
EAST CENTRAL FLORIDA
  
CITY           SKY/WX    TMP DP  RH WIND       PRES   REMARKS
ORMOND BEACH   MOSUNNY   84  77  79 E8        30.06S                  
DAYTONA BEACH  PTSUNNY   82  75  79 SW5       30.05F                  
DELAND         FAIR      75  73  94 CALM      30.04F THUNDER          
NEW SMYRNA BEA MOSUNNY   84  75  74 SE6       30.07F                  
JFK SPACE CTR  MOSUNNY   88  65  46 SE8       30.04F                  
TITUSVILLE     PTSUNNY   90  73  58 SE12      30.07S HX  98           
CAPE CANAVERAL MOSUNNY   87  58  36 SE12      30.04F                  
PATRICK AFB    FAIR      87  79  77 SE9       30.04F HX 100           
MELBOURNE      FAIR      87  74  64 SE9       30.04F HX  95           
VERO BEACH     FAIR      86  74  67 SE14      30.04F                  
FT PIERCE      FAIR      85  74  69 SE14      30.04F                  
STUART         MOSUNNY   88  72  58 SE17G23   30.05F                  

STATION/POSITION SKY/WX   TEMP    WIND        PRES    WAVE   SWELL
                          AIR SEA DIR/SP/G            HT/PER HT/PER
                          (F)     (DEG/KT/KT) (MB)    (FT/S) (FT/S)
28.5N   80.2W              85 85  140/  8/ 10 1017.5F   2/ 8   2/ 8
28.9N   78.5W              85 87  140/  8/ 10   N/A
TRIDENT PIER               89 84  110/  6/ 10 1018.9F
28.4N   80.5W                 84                N/A     1/ 5
27.5N   80.2W                 83                N/A     1/ 8

$$
FLZ050-056-061-142-242-148-248-149-249-151-251-155-255-
160-260-212100-
WEST CENTRAL FLORIDA
  
CITY           SKY/WX    TMP DP  RH WIND       PRES   REMARKS
CRYSTAL RIVER  PTSUNNY   88  73  62 NW6       30.04S THUNDER HX  96   
INVERNESS      FAIR      91  73  55 W3        30.03F HX 100           
BROOKSVILLE    FAIR      86  74  67 W13       30.04S                  
CLEARWATER AIR FAIR      81  75  83 W6        30.03F                  
ST PETE CLEARW FAIR      86  75  69 W12       30.02F HX  95           
TAMPA INTL     PTSUNNY   88  70  55 W12       30.03S                  
TAMPA EXEC     CLOUDY    86  73  66 NW12      30.02F                  
PLANT CITY     RAIN     N/A N/A N/A MISG      30.09R                  
MACDILL AFB    FAIR      89  73  59 W8        30.03S HX  96           
PETER O KNIGHT FAIR      90  77  66 W6        30.03R HX 102           
ST PETERSBURG  FAIR      89  73  59 W10       30.00F HX  97           
SARASOTA       FAIR      90  76  63 SW10      30.00F HX 101           
VENICE         FAIR      91  77  62 SW13      30.02F HX 105           

STATION/POSITION SKY/WX   TEMP    WIND        PRES    WAVE   SWELL
                          AIR SEA DIR/SP/G            HT/PER HT/PER
                          (F)     (DEG/KT/KT) (MB)    (FT/S) (FT/S)
27.3N   84.2W                 87                N/A     2/ 4
CLEARWATER BEACH                  240/  4/  5 1017.0F
MIDDLE TAMPA BAY           85     280/ 10/ 13 1016.5F
VENICE                     85 86  230/ 10/ 11 1016.2F

$$
FLZ066-069-070-075>078-162-262-165-265-212100-
SOUTHWEST FLORIDA AND KEYS
  
CITY           SKY/WX    TMP DP  RH WIND       PRES   REMARKS
PUNTA GORDA    CLOUDY    80  71  74 NE13G29   30.04S THUNDER          
FT MYERS       FAIR      90  70  51 W12       29.99F HX  95           
SOUTHWEST INTL FAIR      91  72  53 SW12      29.99F HX  98           
NAPLES         MOSUNNY  N/A N/A N/A SW12      30.00                   
MARCO ISLAND   FAIR      91  77  62 MISG      30.01F HX 105           
IMMOKALEE      FAIR      95  72  46 NE16      29.98F HX 103           
MARATHON       FAIR      89  78  70 SE5       30.02F HX 103           
KEY WEST NAS   PTSUNNY   91  75  59 SE12      30.01F HX 101           
KEY WEST INTL  FAIR      89  76  65 SE13      30.01F HX 100           

STATION/POSITION SKY/WX   TEMP    WIND        PRES    WAVE   SWELL
                          AIR SEA DIR/SP/G            HT/PER HT/PER
                          (F)     (DEG/KT/KT) (MB)    (FT/S) (FT/S)
NAPLES                     87 87              1016.5F
26.0N   85.6W              81 87  150/  8/ 12 1017.1F   2/ 5   2/ 5
DRY TORTUGAS               84     140/ 12/ 13 1016.3F
SAND KEY                   85     130/ 11/ 12 1015.4F
SOMBRERO KEY               84     100/  6/  8 1016.7
LONG KEY                   83                 1015.8

$$
FLZ067-068-071>074-168-172>174-212100-
SOUTHEAST FLORIDA 
  
CITY           SKY/WX    TMP DP  RH WIND       PRES   REMARKS
W PALM BEACH   PTSUNNY   88  72  58 SE15      30.04S                  
BOCA RATON     SUNNY     88  75  66 SE9G18    30.03F HX  97           
FT LAUDER-EXEC FAIR      89  72  56 SE13      30.02F HX  96           
FT LAUDERDALE  PTSUNNY   88  73  61 SE13      30.01F HX  95           
POMPANO BEACH  FAIR      88  74  63 SE14      30.02F HX  96           
PEMBROKE PINES FAIR      91  73  55 E14       30.03F HX  99           
OPA LOCKA      FAIR      90  74  59 SE14      30.03F HX  99           
MIAMI          PTSUNNY   90  73  57 SE16G24   30.02F HX  98           
WEST KENDALL   FAIR      89  73  59 E17G23    30.01F HX  97           
HOMESTEAD      FAIR      89  75  62 E9G18     30.01F HX  99           

STATION/POSITION SKY/WX   TEMP    WIND        PRES    WAVE   SWELL
                          AIR SEA DIR/SP/G            HT/PER HT/PER
                          (F)     (DEG/KT/KT) (MB)    (FT/S) (FT/S)
VIRGINIA KEY               84 89   70/  9/ 14 1016.7F
LAKE WORTH                 83 85  130/ 13/ 15 1018.7R
FOWEY ROCKS                83 85  100/ 14/ 15 1016.9F
SETTLEMENT POINT           85     160/  4/  5 1017